Regional Weather Roundup
Issued by NWS

Home | Current Version | Previous Version | Text Only | Print | Product List | Glossary Off
Versions: 1 2 3 4 5 6 7 8 9 10 11 12 13 14 15 16 17 18 19 20 21 22 23 24 25 26 27 28 29 30 31 32 33 34 35 36 37 38 39 40 41 42 43 44 45 46 47 48 49 50

000
ASUS43 KMKX 031721
RWRWI

WISCONSIN REGIONAL WEATHER ROUNDUP
NATIONAL WEATHER SERVICE MILWAUKEE/SULLIVAN WI
1100 AM CST TUE MAR 03 2015

NOTE: "FAIR" INDICATES FEW OR NO CLOUDS BELOW 12,000 FEET WITH NO
SIGNIFICANT WEATHER AND/OR OBSTRUCTIONS TO VISIBILITY.

WIZ001-002-006>008-014>016-023>028-031800-
NORTHWEST WISCONSIN

CITY           SKY/WX    TMP DP  RH WIND       PRES   REMARKS
SUPERIOR ARPT  LGT SNOW  22  19  87 SW9       29.62F WCI  12
ASHLAND        SNOW      22  19  89 SW10      29.62F VSB 1/2 WCI  11
HAYWARD        SNOW      21  17  84 S8        29.61F VSB 1/4 WCI  11
SIREN          SNOW      23  20  89 SW7       29.65S VSB 1/2 WCI  15
CUMBERLAND     SNOW      23  19  86 SW5       29.62F VSB 1/2 WCI  17
RICE LAKE      LGT SNOW  24  19  82 SW6       29.64F VSB 1   WCI  17
CHETEK         LGT SNOW  23  19  86 SW3       29.63F VSB 3/4
LADYSMITH      LGT SNOW  24  19  84 S6        29.62F WCI  16
EAU CLAIRE     LGT SNOW  24  19  81 W8        29.64F WCI  15
MENOMONIE      LGT SNOW  25  20  83 CALM      29.65F
NEW RICHMOND   LGT SNOW  25  20  81 SW8       29.65F WCI  16
OSCEOLA        LGT SNOW  25  22  87 SW5       29.68F VSB 3/4 WCI  20
$$

WIZ003>005-009-010-017-018-031800-
NORTH CENTRAL WISCONSIN

CITY           SKY/WX    TMP DP  RH WIND       PRES   REMARKS
MANITOWISH WTR LGT SNOW  19  17  90 S5        29.57F VSB 3/4 WCI  12
ARBOR VITAE    LGT SNOW  22  18  86 S5        29.57F WCI  15
WOODRUFF       LGT SNOW  22  18  86 S5        29.57F WCI  15
RHINELANDER    LGT SNOW  20  15  81 S7        29.58F WCI  11
EAGLE RIVER    SNOW      20  16  83 SW3       29.58F VSB 1/2
LAND O LAKES   LGT SNOW  21  17  84 S3        29.58F VSB 3/4
PHILLIPS       LGT SNOW  20  17  86 S5        29.57F WCI  14
TOMAHAWK       SNOW      20  17  86 CALM      29.61F VSB 1/2
MEDFORD        SNOW      20  17  88 S5        29.59F VSB 1/2 WCI  14
MERRILL        SNOW      21  19  89 CALM      29.62F VSB 1/2
$$

WIZ029-030-035-036-043>047-031800-
CENTRAL WISCONSIN

CITY           SKY/WX    TMP DP  RH WIND       PRES   REMARKS
WAUSAU         LGT SNOW  22  20  92 CALM      29.58F VSB 3/4
MOSINEE        CLOUDY    21  21 100 S6        29.61F VSB 1   WCI  14
MARSHFIELD     SNOW      23  19  85 SW6       29.60F VSB 1/2 WCI  16
STEVENS POINT  MIX PCPN  22  20  95 SW5       29.63F WCI  15
WAUPACA        CLOUDY    28  24  86 S6        29.64F FOG     WCI  21
WAUTOMA        FOG       26  25  96 S6        29.64F VSB 1   WCI  19
WISC RAPIDS    CLOUDY    23  20  88 SW6       29.64F FOG     WCI  16
CAMP DOUGLAS   FRZ DRZL  25  25 100 VRB3      29.64F FOG
$$

WIZ011>013-019>022-031-037>040-048>050-031800-
NORTHEAST WISCONSIN

CITY           SKY/WX    TMP DP  RH WIND       PRES   REMARKS
ANTIGO         SNOW      20  18  93 S5        29.60F VSB 1/2 WCI  13
SHAWANO        MIX PCPN  28  25  88 SW3       29.65F
OCONTO         CLOUDY    27  27  98 S6        29.65F WCI  21
STURGEON BAY   CLOUDY    28  25  86 S14G21    29.65F WCI  17
GREEN BAY      LGT SNOW  28  26  92 S7        29.64F FOG     WCI  21
MANITOWOC      LGT SNOW  28  27  93 S14       29.64F FOG     WCI  17
APPLETON       LGT SNOW  27  25  93 S12       29.65F WCI  16
CLINTONVILLE   MIX PCPN  27  25  93 SW8       29.63F WCI  18
OSHKOSH        FRZ RAIN  27  24  89 S12       29.62F FOG     WCI  17
$$

WIZ032>034-041-042-053>061-031800-
SOUTHWEST WISCONSIN

CITY           SKY/WX    TMP DP  RH WIND       PRES   REMARKS
LA CROSSE      CLOUDY    26  23  88 SW5       29.67F FOG     WCI  20
SPARTA         CLOUDY    25  24  96 SW3       29.65F FOG
VIROQUA        CLOUDY    25  25 100 SW7       29.62F WCI  17
BOSCOBEL       CLOUDY    28  25  88 CALM      29.67F FOG
PRAIRIE DU CHI   N/A     27  25  93 CALM      29.67F FOG
PLATTEVILLE    CLOUDY    31  29  94 S13       29.64F WCI  21
$$

WIZ056-057-062-063-064-067-068-031800-
SOUTH CENTRAL WISCONSIN

CITY           SKY/WX    TMP DP  RH WIND       PRES   REMARKS
REEDSBURG      CLOUDY    25  24  96 SW3       29.64F FOG
BARABOO/DELLS  CLOUDY    26  24  93 SW5       29.63F FOG     WCI  20
LONE ROCK      CLOUDY    27  24  89 NW3       29.66F FOG
MINERAL POINT  CLOUDY    32  30  93 SW9       29.63S FOG     WCI  24
MADISON        FRZ DRZL  28  25  88 S6        29.64F FOG     WCI  22
MIDDLETON      CLOUDY    30  28  92 SW7       29.64F WCI  23
WATERTOWN      CLOUDY    28  28 100 S6        29.64F FOG     WCI  21
MONROE         CLOUDY    30  30 100 SW18      29.63F FOG     WCI  18
JANESVILLE     FOG       30  28  93 S16       29.66F VSB 1   WCI  19
$$

WIZ051-052-058>065-066-070>072-031800-
SOUTHEAST WISCONSIN

CITY           SKY/WX    TMP DP  RH WIND       PRES   REMARKS
MILWAUKEE      SNOW      29  26  89 S10       29.65F VSB 1/2 WCI  20
WAUKESHA       LGT SNOW  27  27 100 S8        29.66F VSB 1   WCI  18
MILWAUKEE/TIMM LGT SNOW  28  27  93 S8        29.66F WCI  20
RACINE         FRZ RAIN  30  27  88 S12       29.66F FOG     WCI  20
BURLINGTON     CLOUDY    30  28  93 S16G23    29.65F FOG     WCI  18
KENOSHA        FRZ DRZL  31  29  92 SW14      29.66F FOG     WCI  21
FOND DU LAC    FRZ RAIN  27  24  89 S9        29.63F FOG     WCI  18
SHEBOYGAN      LGT SNOW  29  26  89 S16       29.64F VSB 3/4 WCI  17
WEST BEND      MIX PCPN  28  27  93 S7        29.63F WCI  21
JUNEAU         MIX PCPN  27  26  94 S9        29.64F WCI  18
$$

LSZ147-162-031800-
LAKE SUPERIOR

STATION/POSITION TIME  TEMP    WIND        PRES    WAVE
                       AIR SEA DIR/SP/G            HT/PER
                 (UTC) (F)     (DEG/KT/KT) (MB)    (FT/S)
DEVILS ISLAND    1700   21     210/  8/ 10 1003.8F
PORT WING        1600   22     200/  7/ 11 1004.4F
SAXON HARBOR     1640   22     200/  3/ 10 1003.4F
$$

LMZ867-665-643>646-031800-
LAKE MICHIGAN

STATION/POSITION TIME  TEMP    WIND        PRES    WAVE
                       AIR SEA DIR/SP/G            HT/PER
                 (UTC) (F)     (DEG/KT/KT) (MB)    (FT/S)
NORTHPORT PIER   1707   27     150/ 15/ 22 1004.4F
SISTER BAY       1613   28     170/ 15/ 21   N/A
KEWAUNEE LAKESHO 1600   29                 1005.3
SHEBOYGAN LAKESH 1700   29     180/ 22/ 24 1004.9F
PORT WASHINGTON  1602   29     170/ 18     1006.4F
MILWAUKEE LAKESH 1700   29     200/ 10/ 12   N/A
KENOSHA   LAKESH 1600   29     180/ 11/ 15 1005.8F
$$

TC  - TEMPERATURE IN CELSIUS
VSB - VISIBILITY IN STATUTE MILES
WCI - WIND CHILL INDEX
HX  - HEAT INDEX




USA.gov is the U.S. government's official web portal to all federal, state and local government web resources and services.